Theta_e
311 306 305 306 307 306 304 303 302 305 308 306 304 304 306 309 309 308 309 309 310 312 317 322 322 323 324 323 325 327 327 330 328 323 326 332 330 330 332 337 352 355 351 354
308 304 308 307 306 305 304 302 303 306 307 305 304 303 307 309 309 308 307 309 310 314 316 319 321 322 321 320 321 325 327 329 327 324 327 327 331 334 340 338 349 355 358 359
304 306 308 305 304 303 304 302 302 302 304 305 303 301 304 306 307 308 309 310 312 313 315 319 320 320 321 319 319 322 326 328 329 329 327 328 328 336 333 338 339 349 357 359
305 308 305 304 303 305 300 304 303 301 299 295 303 292 301 304 305 306 308 310 311 314 316 317 317 319 319 319 321 321 324 326 327 330 329 328 323 320 325 332 339 347 353 357
304 303 304 302 303 305 301 304 302 301 299 299 299 296 300 304 302 304 308 309 310 314 316 316 317 318 319 320 320 322 324 326 326 327 327 323 326 322 322 324 340 347 349 353
306 309 305 304 305 305 305 303 303 303 301 293 298 297 297 300 302 304 306 308 311 313 314 316 318 319 319 319 320 321 323 325 326 324 324 325 325 325 322 325 326 331 340 344
304 305 306 306 302 306 304 300 294 292 292 291 299 295 298 303 305 306 306 307 310 312 313 313 314 314 318 318 319 320 321 322 323 322 323 323 326 325 326 327 324 333 334 338
298 295 303 306 302 300 300 299 293 286 288 291 298 292 297 305 307 307 308 310 310 311 312 312 314 315 316 317 319 320 320 319 320 320 321 323 323 320 322 325 326 326 332 337
296 297 305 305 305 303 299 296 302 296 296 291 295 299 303 304 305 307 307 308 309 309 312 312 314 316 316 317 318 318 318 318 318 319 323 324 324 325 323 326 329 325 334 336
301 295 302 302 304 305 302 304 295 297 286 286 292 293 294 300 302 304 306 307 308 308 311 312 312 315 316 316 318 318 317 316 316 317 317 319 321 322 322 324 324 329 332 339
304 301 299 302 300 299 300 299 299 299 295 288 286 291 303 302 304 304 307 308 309 305 309 310 313 314 314 315 315 315 315 315 315 316 317 318 318 320 321 321 322 326 331 336
304 301 295 297 303 304 301 298 298 294 290 293 292 292 304 304 304 305 306 308 309 307 310 311 310 312 313 313 314 314 314 313 314 315 315 317 318 318 321 322 322 325 328 332
305 298 292 293 299 302 299 300 300 299 298 292 286 290 303 304 303 304 304 307 306 307 309 309 309 310 310 312 312 311 312 312 313 313 313 313 316 317 320 322 323 324 327 329
304 299 295 290 295 299 296 297 298 296 292 292 292 293 298 300 302 303 305 306 306 307 307 308 308 307 309 309 309 310 311 312 311 311 310 310 311 314 314 316 323 323 325 328
304 297 299 298 298 298 296 296 296 294 295 290 292 293 296 299 300 303 303 305 304 305 305 306 308 307 307 308 308 309 309 310 308 307 306 307 310 311 313 315 321 322 326 327
305 296 298 295 298 297 294 295 296 296 295 294 294 294 300 303 304 303 303 304 304 304 304 305 307 308 307 306 306 306 306 307 308 304 303 305 307 309 312 314 320 322 323 326
301 298 296 291 295 295 291 294 294 295 296 295 291 295 300 299 300 299 300 302 302 303 303 304 304 306 305 304 304 303 304 304 305 303 303 304 306 308 312 313 319 321 322 332
300 299 296 291 293 284 294 301 300 296 297 299 297 297 298 299 302 301 302 301 302 302 301 302 303 303 303 303 302 303 302 302 303 301 302 303 305 308 312 313 319 322 324 329
302 297 293 289 288 292 294 297 294 292 292 299 295 299 300 300 299 300 302 303 302 301 302 302 302 302 302 303 303 302 301 301 301 300 301 303 306 308 310 314 319 322 324 324
301 301 294 291 285 283 293 299 302 301 290 299 298 298 298 297 287 293 302 301 301 301 300 300 302 302 302 302 302 299 299 299 298 299 301 303 306 310 309 316 321 319 320 315
294 294 290 289 288 291 298 300 302 287 290 300 301 299 298 294 297 301 301 299 300 300 299 300 299 299 300 301 299 297 297 297 299 302 301 304 308 311 312 317 319 318 313 307
292 290 290 291 288 285 302 300 290 298 302 301 302 301 299 298 298 299 298 299 297 297 297 298 297 297 298 298 297 296 295 298 300 300 302 305 309 311 313 318 313 314 308 303
292 296 293 292 293 302 304 301 305 305 303 301 302 301 300 298 297 297 296 295 297 297 297 297 296 296 297 297 297 295 296 298 298 300 303 307 310 311 316 313 310 312 307 302
298 300 296 295 299 299 302 304 305 305 302 304 303 301 299 295 295 294 294 297 296 296 295 296 295 294 294 296 296 297 298 300 301 302 304 307 311 314 315 311 310 310 306 302
298 300 297 297 300 301 302 303 304 305 305 303 302 300 297 295 293 294 295 293 294 294 294 294 293 293 293 295 296 298 299 301 301 302 306 307 311 312 306 299 305 306 303 303
302 298 294 293 301 300 299 305 306 303 303 303 299 298 296 295 293 294 292 293 292 292 293 292 293 293 295 297 298 299 300 300 302 301 303 307 306 306 302 299 296 293 295 294
Wind_Speed
4 10 9 11 7 9 11 13 15 15 9 11 15 16 17 17 16 17 15 8 6 6 6 8 5 4 4 4 5 7 9 11 10 10 10 10 11 10 11 12 13 15 12 14
12 13 9 4 10 11 12 16 17 13 10 11 17 22 20 20 16 11 8 9 7 8 8 10 7 6 5 2 2 5 7 9 9 9 9 9 11 11 14 10 11 14 16 11
11 15 5 9 11 13 14 15 15 16 15 18 23 23 18 6 3 7 8 7 8 7 10 11 9 7 5 3 0 3 5 8 9 11 8 9 10 8 9 11 11 12 16 15
13 6 5 11 14 14 13 8 12 16 16 16 17 20 19 14 11 10 10 12 10 10 6 6 5 8 4 5 4 4 5 7 9 11 10 10 10 10 12 13 13 12 14 18
13 6 12 13 10 8 13 12 15 19 19 20 19 14 13 7 12 10 12 10 5 7 11 13 10 8 5 7 7 7 7 8 9 10 10 10 10 9 10 11 16 15 14 12
12 5 4 11 7 6 11 14 17 20 17 12 19 8 10 11 12 10 8 8 9 12 11 10 10 9 9 10 6 7 12 10 11 10 12 12 12 12 11 12 12 12 13 13
16 14 3 5 13 11 12 14 10 8 9 11 11 7 14 16 12 11 9 14 10 10 9 7 10 9 12 8 8 9 13 14 13 13 13 13 13 13 14 12 11 13 11 12
8 10 6 6 9 12 16 12 8 14 14 18 22 21 15 5 6 5 9 10 10 13 11 10 8 9 12 13 12 12 15 16 15 15 15 13 14 11 11 12 11 11 13 12
10 8 12 12 14 11 7 8 8 12 16 18 16 20 14 12 5 9 13 9 10 7 16 9 10 10 12 10 11 12 15 16 16 16 13 13 13 14 13 14 12 12 13 13
7 15 13 6 8 14 14 10 9 6 7 15 15 24 19 9 14 9 12 15 17 23 36 6 10 13 12 12 12 12 14 17 17 17 16 13 14 15 15 13 14 14 14 17
11 9 12 16 18 16 7 13 15 15 12 14 20 12 21 26 24 16 19 11 10 9 18 21 15 13 14 15 16 13 14 17 17 16 16 16 15 16 15 15 15 14 15 16
11 7 14 20 22 17 9 12 15 10 17 17 18 23 21 23 23 21 20 21 13 9 21 18 15 18 16 13 17 15 15 17 17 16 16 17 17 17 16 15 16 15 16 16
10 5 10 12 4 6 10 11 15 18 18 24 18 19 20 23 22 17 8 12 9 10 18 18 17 18 18 16 16 16 16 18 17 17 17 18 18 16 16 16 16 16 16 16
3 12 15 15 19 20 21 22 22 23 11 21 21 26 24 17 16 20 21 15 15 19 21 19 18 17 17 16 18 19 16 17 17 18 19 20 19 15 14 16 18 16 17 17
6 14 16 19 22 22 24 26 25 22 20 18 16 22 23 22 17 20 3 16 18 21 20 23 25 16 17 19 21 18 16 15 16 17 18 19 17 16 16 17 19 15 17 15
7 14 16 22 22 22 23 25 20 14 15 19 21 21 18 23 22 23 23 23 24 26 27 23 25 24 22 22 17 18 17 18 17 17 18 18 16 15 18 17 19 15 11 17
15 14 15 18 20 22 19 9 15 14 13 17 17 23 24 21 19 21 23 24 26 28 21 23 24 25 22 19 16 16 15 16 16 19 17 16 15 16 18 17 16 15 10 16
13 14 12 15 20 18 17 15 12 12 14 17 22 17 15 20 25 23 22 23 23 24 23 24 23 22 17 17 18 16 18 15 15 18 18 17 16 17 17 18 12 10 9 11
5 9 11 10 14 21 13 9 2 7 18 16 9 22 25 24 26 23 18 21 21 24 21 19 21 20 18 19 16 15 14 14 14 16 18 16 15 16 14 18 11 6 6 5
7 12 8 16 19 13 14 16 20 19 16 12 24 25 25 21 15 17 24 21 24 22 16 20 24 21 18 17 16 16 16 15 16 17 15 15 14 14 14 14 9 2 3 6
10 13 13 12 16 12 11 17 17 9 11 24 23 21 21 19 21 26 25 20 18 21 25 22 19 17 17 17 14 15 16 16 16 13 13 15 15 12 14 11 2 1 6 8
12 7 10 8 14 6 23 16 7 11 14 19 23 22 25 24 25 23 22 23 22 21 21 22 19 18 17 15 13 14 16 14 12 12 14 14 13 9 11 5 3 4 9 7
5 4 9 7 9 20 15 14 18 18 21 20 21 24 27 25 25 25 22 21 22 21 19 17 16 18 16 14 11 15 15 13 12 13 13 12 11 10 6 5 4 5 8 6
13 6 9 12 9 16 17 21 16 22 20 24 23 23 24 22 23 21 18 20 20 18 18 17 17 17 17 13 13 15 15 13 12 11 11 10 11 7 5 4 2 4 6 6
13 11 10 15 17 20 15 19 22 24 21 26 22 22 21 21 21 19 20 19 17 18 17 15 15 15 18 15 14 14 14 12 11 10 11 7 7 5 7 7 3 5 4 7
5 6 5 10 19 16 17 21 24 18 24 25 18 23 18 18 20 21 18 17 18 17 18 16 17 15 16 15 13 12 13 12 10 8 7 5 5 6 6 7 9 15 14 14
Wind_Direction
349 291 263 15 329 314 301 291 289 291 291 300 283 286 285 281 279 275 273 287 257 241 190 161 199 205 160 79 34 20 9 9 351 356 339 338 305 266 248 250 276 287 230 204
259 245 26 333 303 290 287 283 280 290 298 301 295 290 285 271 258 268 301 269 246 203 201 186 194 202 213 150 48 32 7 6 357 356 333 335 322 293 300 263 225 237 271 220
300 293 343 289 285 283 275 292 303 312 318 286 269 271 273 289 234 255 266 258 293 253 226 176 205 210 248 229 281 24 4 354 339 346 336 344 324 306 266 271 265 224 229 243
286 318 302 285 278 287 291 352 308 295 294 291 320 292 284 270 229 224 237 240 228 223 221 266 229 223 231 279 307 342 345 339 340 337 329 342 316 322 335 306 294 298 228 210
279 309 316 301 318 347 298 331 295 286 277 280 275 262 278 197 245 244 256 265 283 236 217 213 221 219 223 279 291 326 324 319 329 328 323 319 318 318 315 310 311 305 287 275
268 292 252 308 333 271 301 280 286 274 257 264 278 305 288 289 340 330 304 270 237 230 235 240 244 242 240 251 317 316 318 312 319 317 315 313 306 307 306 306 302 289 285 272
324 274 108 274 285 233 304 304 316 290 290 253 280 261 268 277 282 288 319 292 260 240 250 277 256 271 292 289 306 324 308 309 310 313 311 309 305 300 290 281 281 299 287 274
326 310 148 92 297 315 300 291 273 287 297 303 309 285 284 178 225 309 260 268 268 270 264 284 306 316 317 327 327 323 304 303 307 306 305 307 303 293 295 281 288 296 297 296
316 275 342 295 304 305 280 258 346 309 295 276 279 278 292 342 76 336 327 319 302 12 300 325 285 312 319 308 301 296 303 298 301 304 298 292 293 288 293 292 282 275 274 271
303 306 293 296 308 262 241 303 300 266 285 280 292 303 283 21 354 311 329 13 5 359 315 341 331 314 313 313 294 294 310 307 306 301 298 298 302 292 287 287 284 278 278 281
285 279 279 302 274 291 265 233 235 255 278 289 298 280 329 326 326 343 323 340 316 309 305 331 302 304 310 302 310 314 306 300 302 301 301 297 297 295 289 286 285 280 278 275
313 302 289 299 290 276 293 290 286 277 284 274 281 281 314 308 320 326 327 330 339 322 304 270 320 319 321 317 298 308 309 300 296 296 300 301 298 291 284 281 286 279 276 277
354 290 309 308 236 160 241 293 294 290 282 280 284 285 298 304 319 303 278 314 319 308 315 318 313 308 313 318 315 309 302 298 301 305 303 300 296 294 296 296 287 277 276 275
299 262 256 272 286 299 297 301 294 279 286 283 283 297 303 322 335 323 335 329 325 323 310 312 311 308 311 319 307 301 307 310 309 307 304 298 295 298 300 293 283 277 274 272
233 278 290 293 298 297 286 282 289 295 301 308 306 303 319 338 330 324 346 319 320 313 312 311 310 302 303 315 314 316 310 303 306 298 296 294 293 288 284 284 277 271 272 280
274 290 292 290 291 302 305 302 332 330 300 325 323 313 334 323 331 338 339 330 317 313 311 309 305 315 321 320 317 310 303 294 297 289 288 289 287 283 281 280 274 269 278 290
285 281 295 304 299 304 295 335 311 330 338 331 315 310 327 327 328 322 315 307 304 307 318 313 306 308 320 314 308 294 290 291 288 285 286 279 280 278 278 280 272 271 291 284
272 284 294 285 296 297 325 14 350 338 323 315 314 343 337 321 313 310 316 308 309 312 316 307 307 304 304 299 293 285 284 279 275 281 281 281 280 276 274 279 270 284 288 295
240 288 291 290 302 304 299 35 36 345 309 331 340 330 324 319 322 303 310 302 310 318 314 308 305 299 296 293 290 285 282 280 280 279 277 278 274 273 278 275 272 308 278 337
238 242 258 285 288 298 6 9 343 322 301 354 335 320 320 318 297 302 315 320 308 309 308 306 308 302 298 291 300 300 286 278 275 274 274 273 273 271 277 277 279 52 30 51
306 312 292 302 297 296 49 356 345 324 325 320 315 315 316 306 298 308 316 312 317 312 309 297 294 293 297 307 293 281 282 275 272 274 274 269 265 264 274 272 45 104 90 83
301 295 299 309 296 305 348 350 343 292 306 305 313 320 320 311 310 308 313 318 314 303 300 307 302 292 288 285 280 278 276 277 278 270 263 262 268 266 268 165 127 120 108 102
291 271 295 278 289 312 325 314 326 318 312 313 321 327 321 314 310 316 311 307 302 307 307 297 291 290 290 286 276 275 274 273 268 264 265 266 266 270 235 153 155 136 118 115
305 306 265 297 289 315 334 321 315 314 313 312 325 321 326 316 315 304 305 304 309 306 302 299 295 291 289 283 270 266 270 264 258 262 271 268 263 264 125 122 176 126 121 117
284 307 318 298 299 335 311 313 304 306 308 328 321 328 321 317 310 310 308 308 303 302 302 299 294 288 285 281 269 261 258 256 254 255 254 262 274 129 96 56 35 90 54 129
359 319 303 297 311 300 288 297 307 316 330 326 330 328 324 318 312 311 309 306 302 301 303 299 293 285 282 283 273 247 244 233 231 238 253 236 113 122 103 97 81 54 80 71